Regional Weather Roundup
Issued by NWS

Home | Current Version | Previous Version | Graphics & Text | Print | Product List | Glossary On
Versions: 1 2 3 4 5 6 7 8 9 10 11 12 13 14 15 16 17 18 19 20 21 22 23 24 25 26 27 28 29 30 31 32 33 34 35 36 37 38 39 40 41 42 43 44 45 46 47 48 49 50
000
ASUS43 KDTX 240910
RWRMI
MICHIGAN HOURLY REGIONAL WEATHER ROUNDUP
NATIONAL WEATHER SERVICE DETROIT/PONTIAC MI
400 AM EST SAT FEB 24 2018

NOTE: "FAIR" INDICATES FEW OR NO CLOUDS BELOW 12,000 FEET WITH NO
SIGNIFICANT WEATHER AND/OR OBSTRUCTION TO VISIBILITY.

MIZ047>049-052>055-059>063-066>070-074>076-081>083-241000-
SOUTHEAST LOWER MICHIGAN

CITY           SKY/WX    TMP DP  RH WIND       PRES   REMARKS
ADRIAN         CLOUDY    36  31  82 NE5       30.25R WCI  32
ALMA           CLOUDY    33  31  90 CALM      30.24F
ANN ARBOR      CLOUDY    37  31  78 NW6       30.23R WCI  32
BAD AXE        CLOUDY    34  31  88 W6        30.23F WCI  29
CARO           CLOUDY    35  32  87 NW3       30.22F
DETROIT CITY   CLOUDY    38  30  73 VRB3      30.24R
DETROIT        CLOUDY    39  32  76 N8        30.24R WCI  33
FLINT          CLOUDY    35  30  82 NW7       30.23F WCI  29
GROSSE ILE     CLOUDY    38  34  83 N6        30.23R WCI  34
HILLSDALE      CLOUDY    34  32  93 N5        30.21S WCI  30
HOWELL         CLOUDY    35  31  86 N3        30.22S

CITY           SKY/WX    TMP DP  RH WIND       PRES   REMARKS
JACKSON        CLOUDY    36  31  82 N5        30.22S WCI  32
LAMBERTVILLE   CLOUDY    37  33  83 N6        30.24S WCI  33
LANSING        CLOUDY    35  29  78 N9        30.23S WCI  28
LAPEER         CLOUDY    36  32  85 CALM      30.22F
MASON          CLOUDY    36  29  76 N3        30.22F
MONROE         CLOUDY    38  33  81 NW3       30.24R
MT. CLEMENS    CLOUDY    37  36  93 NW6       30.21F WCI  33
PONTIAC        CLOUDY    35  30  82 N6        30.19F WCI  30
PORT HOPE        N/A     34  30  85 N6        30.22S WCI  29
PORT HURON     CLOUDY    37  30  75 CALM      30.23F
TRI CITIES     CLOUDY    34  30  85 W3        30.24F
MIDLAND        CLOUDY    35  29  79 CALM      30.23F
TROY           CLOUDY    38  32  80 NW6       30.24S WCI  33
SAGINAW HB     CLOUDY    34  30  86 NW5       30.23F WCI  30
$$
MIZ043>046-050>051-056>058-064>065-071>073-077>080-241000-
SOUTHWEST LOWER MICHIGAN

CITY           SKY/WX    TMP DP  RH WIND       PRES   REMARKS
BATTLE CREEK   CLOUDY    35  29  78 N6        30.23S WCI  30
BENTON HARBOR  FAIR      35  29  78 VRB3      30.23R
BIG RAPIDS     CLOUDY    32  26  80 CALM      30.24R
COLDWATER      CLOUDY    36  34  93 NE6       30.22R WCI  31
FREMONT        FAIR      31  24  73 CALM      30.23F
HOLLAND        FAIR      34  27  75 N7        30.23F WCI  28
GRAND RAPIDS   CLOUDY    34  28  79 N7        30.22F WCI  28
IONIA          CLOUDY    34  28  80 N9        30.22S WCI  26
KALAMAZOO      CLOUDY    36  29  75 N7        30.23S WCI  30
LUDINGTON      CLOUDY    32  25  74 N6        30.24F WCI  27
MARSHALL       CLOUDY    35  31  86 CALM      30.22S
MOUNT PLEASANT CLOUDY    35  28  76 CALM      30.23F
MUSKEGON       CLOUDY    34  24  67 N6        30.25F WCI  29
SOUTH HAVEN    FAIR      34  30  84 NE6       30.24R WCI  29
$$
MIZ016>042-241000-
NORTHERN LOWER MICHIGAN

CITY           SKY/WX    TMP DP  RH WIND       PRES   REMARKS
ALPENA         CLOUDY    31  24  75 NW5       30.25R WCI  26
BEAVER ISLAND  CLOUDY    32  24  74 CALM      30.24S
BELLAIRE       CLOUDY    29  29  99 CALM      30.25S
CADILLAC       CLOUDY    31  25  78 CALM      30.20S
CHARLEVOIX     CLOUDY    32  24  73 NW6       30.27S WCI  26
FRANKFORT      CLOUDY    33  27  79 CALM      30.25S
GAYLORD        CLOUDY    28  23  81 VRB5      30.20F WCI  23
GRAYLING       CLOUDY    30  24  80 NW3       30.21S
HARBOR SPRINGS CLOUDY    31  22  69 NW3       30.24S
HOUGHTON LAKE  CLOUDY    32  24  72 N9        30.22S WCI  24
MANISTEE       CLOUDY    32  23  69 CALM      30.25F
OSCODA         CLOUDY    33  26  75 N7        30.23S WCI  27
PELLSTON       CLOUDY    31  22  69 NW13      30.24S WCI  21
ROGERS CITY    CLOUDY    31  24  75 NW8       30.25R WCI  23
TRAVERSE CITY  CLOUDY    33  24  69 N3        30.24F
$$
MIZ007>008-015-241000-
EASTERN UPPER MICHIGAN

CITY           SKY/WX    TMP DP  RH WIND       PRES   REMARKS
KINROSS        CLOUDY    29  24  82 W7        30.21S WCI  22
MACKINAC ISLAN CLOUDY    30  23  74 NW7       30.22S WCI  23
NEWBERRY       CLOUDY    29  22  75 W10       30.21R WCI  20
S. S. MARIE    CLOUDY    31  24  75 W7        30.20R WCI  24
MUNISING         N/A     31  24  75 CALM      30.21F
$$
MIZ004>006-011>014-085-241000-
CENTRAL UPPER MICHIGAN

CITY           SKY/WX    TMP DP  RH WIND       PRES   REMARKS
MANISTIQUE     CLOUDY    30  24  78 W3        30.23S
ESCANABA       CLOUDY    31  23  72 CALM      30.23F
MENOMINEE      CLOUDY    31  23  72 CALM      30.26F
SAWYER-GWINN   CLOUDY    27  21  79 S3        30.19S
$$
MIZ001>003-009>011-084-241000-
WESTERN UPPER MICHIGAN

CITY           SKY/WX    TMP DP  RH WIND       PRES   REMARKS
IRON MOUNTAIN  FAIR      25  20  81 CALM      30.18F
HOUGHTON       CLOUDY    28  20  71 W12       30.16F WCI  18
COPPER HARBOR    N/A     29  20  69 NW5       30.18F WCI  24
IRONWOOD       FAIR      18  15  88 SW3       30.20S
$$

ABBREVIATIONS USED IN REMARKS
   TC - TEMPERATURE IN CELSIUS
  WCI - WIND CHILL INDEX
   HX - HEAT INDEX
  VSB - VISIBILITY





USA.gov is the U.S. government's official web portal to all federal, state and local government web resources and services.